Location: Unspecified
(51.5147°N, 7.4673°E)
Time: 04:42:12
(UTC+01:00)

A-11 Canister half - Pass Details

Date: 24 February 2026
Orbit: 1512 x 1687 km, 47.2° (Epoch: 7 March)

Event Time Altitude Azimuth Distance (km) Brightness Sun altitude
Rises 23:16:35 0° 271° (W) 4,939 12.0 -44.1°
Reaches altitude 10° 23:19:48 10° 269° (W) 3,942 11.3 -44.4°
Enters shadow 23:24:22 31° 262° (W) 2,621 10.2 -44.7°
Maximum altitude 23:29:47 67° 190° (S) 1,761 - -45.1°
Drops below altitude 10° 23:39:28 10° 111° (ESE) 3,826 - -45.7°
Sets 23:42:32 0° 109° (ESE) 4,787 - -45.9°
